Regional Weather Roundup
Issued by NWS

Home | Current Version | Previous Version | Graphics & Text | Print | Product List | Glossary On
Versions: 1 2 3 4 5 6 7 8 9 10 11 12 13 14 15 16 17 18 19 20 21 22 23 24 25 26 27 28 29 30 31 32 33 34 35 36 37 38 39 40 41 42 43 44 45 46 47 48 49 50
000
ASUS43 KMPX 261310
RWRMN
WEATHER ROUNDUP FOR MINNESOTA
NATIONAL WEATHER SERVICE TWIN CITIES/CHANHASSEN MN
800 AM CDT SAT MAY 26 2018


NOTE: "FAIR" INDICATES FEW OR NO CLOUDS BELOW 12,000 FEET WITH NO
SIGNIFICANT WEATHER AND/OR OBSTRUCTIONS TO VISIBILITY. N/A MEANS
CURRENT SKY AND/OR WEATHER CONDITIONS ARE NOT AVAILABLE.

MNZ060>063-068>070-261400-
   Twin Cities Metro

CITY           SKY/WX    TMP DP  RH WIND       PRES   REMARKS
TWIN CITIES    FAIR      73  62  68 SW9       29.72R
ST PAUL        FAIR      72  63  73 S3        29.72S
CRYSTAL        FAIR      72  60  66 SW6       29.70R
BLAINE         SUNNY     73  63  68 SW6       29.71R
LAKEVILLE      FAIR      72  63  73 SW5       29.73R
EDEN PRAIRIE   FAIR      69  62  78 SW9       29.72R
SOUTH ST PAUL  FAIR      72  62  71 SW5       29.72S
LAKE ELMO      FAIR      72  63  73 SW8       29.73R
$$
MNZ001>005-007-008-013>017-022>024-027-028-261400-
   Northwest Minnesota

CITY           SKY/WX    TMP DP  RH WIND       PRES   REMARKS
BEMIDJI        FAIR      68  55  62 W6        29.67R
HALLOCK        FAIR      70  57  64 NW7       29.64R
ROSEAU         FAIR      66  59  77 W3        29.64S
WARROAD        FAIR      66  61  82 W9        29.64R
THIEF RVR FALL FAIR      68  59  73 SW3       29.67R
CROOKSTON      FAIR      66  55  68 SW6       29.66R
FOSSTON        FAIR      66  52  59 S10       29.68R
DETROIT LAKES  FAIR      70  55  60 CALM      29.71S
MOORHEAD       FAIR      70  52  52 W6        29.70R
PARK RAPIDS    FAIR      70  58  65 W6        29.69R
MAHNOMEN       FAIR      65  54  67 S8        29.69R
$$
MNZ006-009>011-018-025>026-261400-
   North Central Minnesota

CITY           SKY/WX    TMP DP  RH WIND       PRES   REMARKS
BAUDETTE         N/A    N/A N/A N/A MISG      29.63R
INTL FALLS     CLOUDY    62  58  86 W6        29.63R
WASKISH        FAIR      70  61  73 CALM      29.66R
BIG FORK       FAIR      70  59  68 CALM      29.65R
LONGVILLE      FAIR      70  59  68 CALM      29.67S
GRAND RAPIDS   FAIR      71  57  61 W3        29.69R
ORR            FAIR      63  57  82 CALM      29.63R
COOK           FAIR      64  59  82 CALM      29.66R
WALKER         FAIR      68  56  65 CALM      29.67S
$$
MNZ012-019>021-037-261400-
   Northeast Minnesota

CITY           SKY/WX    TMP DP  RH WIND       PRES   REMARKS
DULUTH         FAIR      70  60  70 W6        29.67R
ELY            FAIR      70  57  64 SW5       29.66R
HIBBING        FAIR      65  58  78 CALM      29.66R
EVELETH        FAIR      68  59  73 SW5       29.68R
DULUTH HARBOR  FAIR      68  63  83 SW9       29.66R
TWO HARBORS    FAIR      66  59  77 CALM      29.66R
SILVER BAY     FAIR      66  61  82 CALM      29.67R
GRAND MARAIS     N/A     46  44  93 W8        29.70R
G MARAIS ARPRT FAIR      66  55  68 SE3       29.69R
$$
MNZ029>031-032-039>041-046>048-054>057-064-261400-
   West Central Minnesota

CITY           SKY/WX    TMP DP  RH WIND       PRES   REMARKS
FERGUS FALLS   FAIR      68  55  64 NW3       29.68R
WHEATON        SUNNY     72  55  56 CALM      29.73R
MORRIS         SUNNY     72  55  56 NW5       29.72R
ALEXANDRIA     FAIR      73  57  57 W5        29.73R
ELBOW LAKE     FAIR      70  55  58 NW6       29.72S
WADENA         FAIR      70  55  60 W7        29.70S
GLENWOOD       FAIR      72  61  68 W5        29.73R
APPLETON       SUNNY     72  59  64 W3        29.72R
BENSON         SUNNY     72  57  60 CALM      29.73S
ORTONVILLE     SUNNY     72  55  56 W3        29.73R
MADISON        SUNNY     75  59  57 W9        29.73R
WILLMAR        FAIR      70  55  60 W6        29.75R
$$
MNZ033>034-036-042>043-049>051-058-059-261400-
   Central Minnesota

CITY           SKY/WX    TMP DP  RH WIND       PRES   REMARKS
ST CLOUD       FAIR      70  59  68 SW5       29.70R
SAUK CENTRE    FAIR      70  57  63 W3        29.72R
PAYNESVILLE    FAIR      71  63  76 W3        29.73R
AITKIN         FAIR      70  57  64 SW3       29.67R
PINE RIVER     FAIR      66  55  68 W3        29.72R
BRAINERD       FAIR      71  57  61 VRB5      29.69R
STAPLES        FAIR      70  54  56 SW6       29.70R
LONG PRAIRIE   FAIR      70  55  60 CALM      29.72R
LITTLE FALLS   FAIR      68  59  73 CALM      29.70R
LITCHFIELD     FAIR      70  63  78 CALM      29.73R
BUFFALO        FAIR      68  60  74 SW3       29.72S
MAPLE LAKE     FAIR      70  63  77 CALM      29.73R
HUTCHINSON     FAIR      69  63  80 SW3       29.74R
$$
MNZ037-044-045-052-053-261400-
   East Central Minnesota

CITY           SKY/WX    TMP DP  RH WIND       PRES   REMARKS
PRINCETON      FAIR      72  61  68 SW5       29.71R
MORA           FAIR      64  57  77 SW3       29.71R
CAMBRIDGE      FAIR      73  59  60 SW3       29.70R
RUSH CITY      FAIR      69  61  76 SW3       29.70S
MOOSE LAKE     FAIR      64  59  82 SW6       29.68R
HINCKLEY       FAIR      68  61  77 SW5       29.70R
CLOQUET        FAIR      66  57  72 SW6       29.68R
MCGREGOR       FAIR      68  59  73 CALM      29.68S
$$
MNZ071>073-080-081-089-090-097-098-261400-
   Southwest Minnesota

CITY           SKY/WX    TMP DP  RH WIND       PRES   REMARKS
MONTEVIDEO     SUNNY     73  55  53 NW6       29.73R
CANBY          SUNNY     75  57  54 SW8       29.75R
MARSHALL       SUNNY     74  60  61 W8        29.75R
REDWOOD FALLS  SUNNY     71  60  68 W6        29.74R
OLIVIA         SUNNY     70  61  73 W5        29.73R
PIPESTONE      SUNNY     68  61  77 CALM      29.80R
WINDOM         SUNNY     72  50  46 SW6       29.77R
WORTHINGTON    MOSUNNY   73  59  61 W9        29.80R
JACKSON        SUNNY     72  59  64 CALM      29.78S
TRACY          SUNNY     77  58  51 NW6       29.76R
SLAYTON        MOSUNNY   75  54  46 W8        29.79R
$$
MNZ065>067-074>077-082>085-091>093-261400-
   South Central Minnesota

CITY           SKY/WX    TMP DP  RH WIND       PRES   REMARKS
MANKATO        FAIR      71  62  73 SW7       29.75R
NEW ULM        SUNNY     70  59  68 SW6       29.74R
ST JAMES       SUNNY     72  61  68 SW5       29.76R
FAIRMONT       SUNNY     73  61  65 W9        29.76S
GLENCOE        FAIR      70  62  75 SW5       29.72S
FARIBAULT      FAIR      70  64  83 CALM      29.75R
OWATONNA       FAIR      72  64  78 SW8       29.75S
WASECA         FAIR      70  63  78 SW7       29.77R
ALBERT LEA     FAIR      70  63  78 SW5       29.76S
$$
MNZ078>079-086>088-094>096-261400-
   Southeast Minnesota

CITY           SKY/WX    TMP DP  RH WIND       PRES   REMARKS
ROCHESTER      FAIR      70  66  87 SW7       29.77R
RED WING       FAIR      72  61  68 CALM      29.72S
STANTON        FAIR      72  64  77 SW7       29.73R
DODGE CENTER   FAIR      68  64  88 SW13      29.76R
WINONA         FAIR      70  63  78 CALM      29.75S
AUSTIN         FAIR      66  64  94 CALM      29.77R
PRESTON        FAIR      68  64  84 SW8       29.77S
$$
ABBREVIATIONS USED IN REMARKS
   TC - TEMPERATURES IN CELSIUS
  WCI - WIND CHILL INDEX
   HX - HEAT INDEX
  VSB - VISIBILITY
$$




USA.gov is the U.S. government's official web portal to all federal, state and local government web resources and services.